This is the latest recevied weather packets stored in our database for station/object LZ1HCO-25. If no packets are shown the sender has not sent any weather packets the latest 10 day(s).
| Time | Temp. | Humidity | Pressure | Rain* | Wind** | Luminosity | Snow |
|---|---|---|---|---|---|---|---|
| 1777977423 | 27.22° C | 36% | 968 hPa | - | - | 0 W/m² | - |
| 1777977111 | 26.67° C | 38% | 968 hPa | - | - | 0 W/m² | - |
| 1777976800 | 26.67° C | 36% | 968 hPa | - | - | 0 W/m² | - |
| 1777976488 | 26.67° C | 36% | 969 hPa | - | - | 0 W/m² | - |
| 1777976177 | 26.67° C | 35% | 969 hPa | - | - | 0 W/m² | - |
| 1777975866 | 27.78° C | 39% | 969 hPa | - | - | 0 W/m² | - |
| 1777975554 | 26.67° C | 39% | 969 hPa | - | - | 0 W/m² | - |
| 1777975243 | 26.11° C | 38% | 969 hPa | - | - | 0 W/m² | - |
| 1777974932 | 26.67° C | 36% | 969 hPa | - | - | 0 W/m² | - |
| 1777974620 | 25.56° C | 37% | 969 hPa | - | - | 0 W/m² | - |
| 1777974309 | 26.11° C | 37% | 969 hPa | - | - | 0 W/m² | - |
| 1777973998 | 26.67° C | 38% | 969 hPa | - | - | 0 W/m² | - |
| 1777973686 | 26.11° C | 37% | 969 hPa | - | - | 0 W/m² | - |
| 1777973375 | 26.67° C | 35% | 969 hPa | - | - | 0 W/m² | - |
| 1777973063 | 25.56° C | 35% | 969 hPa | - | - | 0 W/m² | - |
| 1777972752 | 26.67° C | 40% | 969 hPa | - | - | 0 W/m² | - |
| 1777972441 | 26.11° C | 40% | 969 hPa | - | - | 0 W/m² | - |
| 1777972129 | 25.56° C | 38% | 969 hPa | - | - | 0 W/m² | - |
| 1777971818 | 26.67° C | 36% | 969 hPa | - | - | 0 W/m² | - |
| 1777971507 | 25.56° C | 39% | 969 hPa | - | - | 0 W/m² | - |
| 1777971195 | 26.11° C | 36% | 969 hPa | - | - | 0 W/m² | - |
| 1777970884 | 26.11° C | 40% | 969 hPa | - | - | 0 W/m² | - |
| 1777970573 | 26.67° C | 37% | 969 hPa | - | - | 0 W/m² | - |
| 1777970261 | 25.56° C | 37% | 969 hPa | - | - | 0 W/m² | - |
| 1777969950 | 25.56° C | 40% | 969 hPa | - | - | 0 W/m² | - |
* Rain since midnight (hover to see other rain measurements)
** Current wind speed in m/s (hover to see current wind gust speed)